IR1ZYZ-3 Weather Reports


time (UTC)temp
C
wind
direction
speed
KPH
gust
KPH
rain 1hr
cm
rain 24hr
cm
rain mn
cm
humidity
%
barometer
mb
20260506234300 11 0.0 0.0 0.00 0.00 0.00 10 1012.2
20260506233255 11 0.0 0.0 0.00 0.00 0.00 10 1012.2
20260506232248 11 0.0 0.0 0.00 0.00 0.00 10 1012.3
20260506231243 12 0.0 0.0 0.00 0.00 0.00 10 1012.3
20260506230237 12 0.0 0.0 0.00 0.00 0.00 10 1012.3
20260506225232 12 0.0 0.0 0.00 0.00 0.00 10 1012.3
20260506224226 12 0.0 0.0 0.00 0.00 0.00 10 1012.2
20260506223219 12 0.0 0.0 0.00 0.00 0.00 10 1012.2
20260506222214 12 0.0 0.0 0.00 0.00 0.00 10 1012.3
20260506221208 12 0.0 0.0 0.00 0.00 0.00 10 1012.2
20260506220202 12 0.0 0.0 0.00 0.00 0.00 10 1012.2
20260506215156 12 0.0 0.0 0.00 0.00 0.00 10 1012.1
20260506214151 12 0.0 0.0 0.00 0.00 0.00 10 1012.1
20260506213145 12 0.0 0.0 0.00 0.00 0.00 10 1012.1
20260506212140 12 0.0 0.0 0.00 0.00 0.00 10 1012.1
20260506211134 12 0.0 0.0 0.00 0.00 0.00 10 1012.2
20260506210129 12 0.0 0.0 0.00 0.00 0.00 10 1012.2
20260506205124 12 0.0 0.0 0.00 0.00 0.00 10 1012.1
20260506204119 12 0.0 0.0 0.00 0.00 0.00 10 1012.0
20260506203113 13 0.0 0.0 0.00 0.00 0.00 10 1011.9
20260506202109 13 0.0 0.0 0.00 0.00 0.00 10 1011.8
20260506201104 13 0.0 0.0 0.00 0.00 0.00 10 1011.6
20260506200058 13 0.0 0.0 0.00 0.00 0.00 10 1011.4
20260506195053 13 0.0 0.0 0.00 0.00 0.00 10 1011.4
20260506194049 13 0.0 0.0 0.00 0.00 0.00 10 1011.2
20260506193044 13 0.0 0.0 0.00 0.00 0.00 10 1011.1
20260506192039 13 0.0 0.0 0.00 0.00 0.00 10 1010.9
20260506191033 13 0.0 0.0 0.00 0.00 0.00 10 1010.7
20260506190028 13 0.0 0.0 0.00 0.00 0.00 10 1010.4
20260506185023 14 0.0 0.0 0.00 0.00 0.00 10 1010.2
20260506184018 14 0.0 0.0 0.00 0.00 0.00 10 1010.0
20260506183012 14 0.0 0.0 0.00 0.00 0.00 10 1010.0
20260506182008 14 0.0 0.0 0.00 0.00 0.00 10 1010.0
20260506181003 14 0.0 0.0 0.00 0.00 0.00 10 1009.9
20260506175957 15 0.0 0.0 0.00 0.00 0.00 10 1009.8
20260506174952 15 0.0 0.0 0.00 0.00 0.00 10 1009.6
20260506173948 15 0.0 0.0 0.00 0.00 0.00 10 1009.6
20260506172943 15 0.0 0.0 0.00 0.00 0.00 10 1009.5
20260506171937 15 0.0 0.0 0.00 0.00 0.00 10 1009.5
20260506170932 16 0.0 0.0 0.00 0.00 0.00 10 1009.5
20260506165928 16 0.0 0.0 0.00 0.00 0.00 10 1009.4
20260506164923 17 0.0 0.0 0.00 0.00 0.00 89 1009.3
20260506163917 18 0.0 0.0 0.00 0.00 0.00 80 1009.1
20260506162912 18 0.0 0.0 0.00 0.00 0.00 76 1009.2
20260506161907 19 0.0 0.0 0.00 0.00 0.00 76 1009.0
20260506160902 20 0.0 0.0 0.00 0.00 0.00 69 1009.1
20260506160038 20 0.0 0.0 0.00 0.00 0.00 65 1009.0
20260506155857 20 0.0 0.0 0.00 0.00 0.00 65 1009.0
20260506154852 21 0.0 0.0 0.00 0.00 0.00 65 1008.9
20260506153846 21 0.0 0.0 0.00 0.00 0.00 63 1008.8
20260506151835 21 0.0 0.0 0.00 0.00 0.00 67 1008.8
20260506150830 20 0.0 0.0 0.00 0.00 0.00 73 1009.0
20260506145825 21 0.0 0.0 0.00 0.00 0.00 72 1008.9
20260506144821 20 0.0 0.0 0.00 0.00 0.00 70 1008.9
20260506143815 20 0.0 0.0 0.00 0.00 0.00 72 1008.8
20260506142810 21 0.0 0.0 0.00 0.00 0.00 74 1009.1
20260506141805 21 0.0 0.0 0.00 0.00 0.00 71 1009.0
20260506140800 21 0.0 0.0 0.00 0.00 0.00 72 1009.0
20260506135756 21 0.0 0.0 0.00 0.00 0.00 71 1009.1
20260506134750 21 0.0 0.0 0.00 0.00 0.00 68 1009.1
20260506133745 21 0.0 0.0 0.00 0.00 0.00 68 1009.3
20260506132740 22 0.0 0.0 0.00 0.00 0.00 70 1009.3
20260506131734 21 0.0 0.0 0.00 0.00 0.00 69 1009.3
20260506130729 21 0.0 0.0 0.00 0.00 0.00 71 1009.6
20260506125723 21 0.0 0.0 0.00 0.00 0.00 72 1009.5
20260506124718 21 0.0 0.0 0.00 0.00 0.00 76 1009.6
20260506123713 19 0.0 0.0 0.00 0.00 0.00 84 1009.8
20260506122708 21 0.0 0.0 0.00 0.00 0.00 83 1009.8
20260506121703 18 0.0 0.0 0.00 0.00 0.00 10 1010.0
20260506120658 19 0.0 0.0 0.00 0.00 0.00 88 1009.9
20260506115652 20 0.0 0.0 0.00 0.00 0.00 90 1009.8
20260506114648 18 0.0 0.0 0.00 0.00 0.00 95 1009.9
20260506113643 20 0.0 0.0 0.00 0.00 0.00 84 1009.9
20260506112637 19 0.0 0.0 0.00 0.00 0.00 85 1009.8
20260506111632 18 0.0 0.0 0.00 0.00 0.00 98 1009.9
20260506110628 18 0.0 0.0 0.00 0.00 0.00 97 1009.9
20260506105622 19 0.0 0.0 0.00 0.00 0.00 90 1009.8
20260506104617 18 0.0 0.0 0.00 0.00 0.00 94 1009.9
20260506103612 18 0.0 0.0 0.00 0.00 0.00 88 1010.1
20260506102606 18 0.0 0.0 0.00 0.00 0.00 96 1009.8
20260506101600 18 0.0 0.0 0.00 0.00 0.00 98 1009.7
20260506100555 18 0.0 0.0 0.00 0.00 0.00 10 1009.8
20260506095550 17 0.0 0.0 0.00 0.00 0.00 10 1009.9
20260506094545 17 0.0 0.0 0.00 0.00 0.00 10 1010.0
20260506093539 17 0.0 0.0 0.00 0.00 0.00 10 1010.1
20260506092534 17 0.0 0.0 0.00 0.00 0.00 10 1010.2
20260506091530 17 0.0 0.0 0.00 0.00 0.00 10 1010.0
20260506090525 16 0.0 0.0 0.00 0.00 0.00 10 1010.1
20260506085520 16 0.0 0.0 0.00 0.00 0.00 10 1010.0
20260506084515 16 0.0 0.0 0.00 0.00 0.00 10 1010.0
20260506083510 16 0.0 0.0 0.00 0.00 0.00 10 1010.0
20260506082505 15 0.0 0.0 0.00 0.00 0.00 10 1010.1
20260506081501 15 0.0 0.0 0.00 0.00 0.00 10 1010.1
20260506080546 15 0.0 0.0 0.00 0.00 0.00 10 1009.9
20260506080456 15 0.0 0.0 0.00 0.00 0.00 10 1009.9
20260506073442 14 0.0 0.0 0.00 0.00 0.00 10 1010.1
20260506072437 13 0.0 0.0 0.00 0.00 0.00 10 1010.2
20260506071432 13 0.0 0.0 0.00 0.00 0.00 10 1010.0
20260506070428 13 0.0 0.0 0.00 0.00 0.00 10 1010.0
20260506061932 12 0.0 0.0 0.00 0.00 0.00 10 1010.0
20260506060926 12 0.0 0.0 0.00 0.00 0.00 10 1009.9
20260506050854 11 0.0 0.0 0.00 0.00 0.00 10 1009.7
20260506044843 11 0.0 0.0 0.00 0.00 0.00 10 1009.8
20260506043837 11 0.0 0.0 0.00 0.00 0.00 10 1009.5
20260506042831 11 0.0 0.0 0.00 0.00 0.00 10 1009.6
20260506041825 11 0.0 0.0 0.00 0.00 0.00 10 1010.1
20260506040819 11 0.0 0.0 0.00 0.00 0.00 10 1010.3
20260506035814 11 0.0 0.0 0.00 0.00 0.00 10 1010.4
20260506034808 11 0.0 0.0 0.00 0.00 0.00 10 1010.3
20260506033802 11 0.0 0.0 0.00 0.00 0.00 10 1009.8
20260506032756 11 0.0 0.0 0.00 0.00 0.00 10 1009.9
20260506031751 11 0.0 0.0 0.00 0.00 0.00 10 1010.0
20260506030745 11 0.0 0.0 0.00 0.00 0.00 10 1010.1
20260506025740 11 0.0 0.0 0.00 0.00 0.00 10 1009.8
20260506024734 11 0.0 0.0 0.00 0.00 0.00 10 1010.4
20260506023729 11 0.0 0.0 0.00 0.00 0.00 10 1010.5
20260506022723 11 0.0 0.0 0.00 0.00 0.00 10 1010.6
20260506021717 11 0.0 0.0 0.00 0.00 0.00 10 1010.7
20260506020712 11 0.0 0.0 0.00 0.00 0.00 10 1010.7
20260506015706 11 0.0 0.0 0.00 0.00 0.00 10 1010.6
20260506014700 11 0.0 0.0 0.00 0.00 0.00 10 1010.8
20260506013655 11 0.0 0.0 0.00 0.00 0.00 10 1010.8
20260506012650 11 0.0 0.0 0.00 0.00 0.00 10 1010.9
20260506011644 11 0.0 0.0 0.00 0.00 0.00 10 1011.0
20260506010638 11 0.0 0.0 0.00 0.00 0.00 10 1011.0
20260506005633 11 0.0 0.0 0.00 0.00 0.00 10 1010.8
20260506004627 12 0.0 0.0 0.00 0.00 0.00 10 1011.1
20260506003621 11 0.0 0.0 0.00 0.00 0.00 10 1011.4
20260506002616 11 0.0 0.0 0.00 0.00 0.00 10 1011.3
20260506001610 11 0.0 0.0 0.00 0.00 0.00 10 1011.3
20260506000605 11 0.0 0.0 0.00 0.00 0.00 10 1011.3
20260505235600 12 0.0 0.0 0.00 0.00 0.00 10 1012.0
20260505234555 12 0.0 0.0 0.00 0.00 0.00 10 1012.4